Wind_Speed
21 20 19 18 17 15 14 17 18 19 20 19 18 17 16 15 15 16 14 14 14 16 17 17 17 16 15 13 12 11 11 11 10 9 9 8 7 6 6 6 5 4 4 4 4 4 4 4 4
22 21 21 20 19 17 17 20 20 21 20 19 19 18 17 16 16 16 15 15 15 16 17 18 17 17 16 14 14 13 13 12 12 11 10 9 8 8 7 7 6 6 5 5 5 4 4 4 3
22 22 22 21 19 18 20 23 23 23 22 21 19 18 17 17 17 16 15 14 15 16 18 19 18 17 16 15 15 15 14 14 13 12 11 10 9 9 9 8 7 7 6 6 6 5 5 4 3
22 22 22 21 20 20 23 26 26 25 24 23 21 20 18 18 17 17 16 15 15 17 19 21 20 19 18 17 16 16 16 15 14 13 12 11 11 10 10 9 9 8 8 7 7 6 5 5 4
22 22 22 21 20 21 24 27 28 28 27 25 23 21 20 19 18 17 17 16 16 17 19 20 20 19 19 18 18 17 17 16 15 15 14 13 12 12 11 11 10 10 9 8 8 7 6 6 5
21 22 22 21 21 23 25 27 29 29 29 28 26 24 23 21 19 18 17 17 17 18 18 19 20 20 20 20 19 18 18 17 16 16 15 14 14 13 13 12 12 11 10 10 9 8 7 6 6
21 21 21 21 22 24 26 28 29 30 30 30 28 26 25 23 20 18 17 18 17 18 18 19 21 21 21 21 21 20 19 18 18 17 16 16 15 14 14 13 13 12 12 11 10 10 9 8 7
20 21 21 21 23 25 27 28 29 30 30 31 30 28 28 25 22 19 18 18 18 18 19 20 21 22 22 23 22 21 20 20 19 18 17 17 16 16 15 14 14 13 13 12 11 11 10 9 9
21 21 22 23 25 26 28 29 30 30 31 31 31 30 29 26 23 21 19 19 19 19 19 19 22 23 23 23 24 23 22 21 20 19 18 18 17 17 16 16 15 14 14 14 13 12 11 11 10
22 23 25 26 26 27 28 29 31 31 31 31 31 31 30 28 24 22 20 20 20 20 20 21 22 23 23 24 25 24 22 21 20 20 19 19 19 18 17 17 16 16 15 15 14 13 13 12 12
24 25 27 27 28 28 29 30 31 31 31 32 32 32 31 28 26 23 21 21 21 22 21 21 22 23 24 25 25 25 23 22 22 21 21 20 20 19 19 18 18 17 17 16 15 15 14 14 13
25 26 28 28 29 29 30 31 32 32 31 33 33 32 30 29 26 24 22 21 21 22 23 23 24 25 25 25 25 25 24 23 23 22 21 21 21 20 20 19 19 18 18 18 17 16 16 15 15
25 27 28 29 30 30 30 30 31 31 32 32 32 31 30 29 27 25 24 22 22 23 25 26 26 26 26 25 26 25 24 24 23 23 22 22 22 21 21 21 20 20 20 19 19 18 18 17 17
26 27 27 28 29 29 29 29 29 30 31 31 31 30 29 29 27 26 25 24 23 24 26 26 28 27 28 27 27 26 25 24 23 22 23 23 23 22 22 22 22 22 21 21 20 20 20 20 19
25 25 26 27 27 28 27 27 28 28 29 29 30 29 28 28 28 27 26 26 26 25 25 25 26 28 29 28 28 27 26 26 24 24 24 25 24 24 24 24 24 24 23 22 22 21 21 21 21
23 23 23 26 26 26 24 23 26 26 26 27 29 28 28 28 28 27 27 27 27 25 25 26 26 27 29 29 28 28 27 26 25 25 25 26 25 26 26 26 26 25 25 24 24 24 23 23 23
21 20 20 23 25 24 23 22 24 24 24 26 28 28 28 28 28 29 29 28 28 26 26 27 27 28 28 29 29 28 27 26 26 26 27 27 26 27 27 27 27 27 26 26 26 25 25 25 25
18 18 19 20 23 22 22 22 21 21 23 24 26 27 28 29 30 30 30 30 30 29 28 28 27 27 26 26 27 27 27 26 27 27 28 28 27 28 29 28 28 28 27 26 26 27 27 27 28
18 18 17 19 21 21 21 20 20 19 21 23 24 26 27 29 30 31 32 33 33 31 28 27 28 25 24 24 25 25 27 27 27 27 28 29 29 29 30 29 30 30 29 29 29 29 29 30 30
17 16 16 18 19 19 19 19 18 18 19 20 23 25 26 29 31 33 34 36 35 32 29 27 26 24 23 23 23 24 24 25 27 28 29 30 31 32 32 32 32 31 31 31 31 31 31 32 31
16 16 16 17 17 17 17 17 17 17 18 19 21 23 25 28 31 34 35 35 35 34 31 29 27 25 24 24 23 24 24 25 26 26 28 31 33 33 34 33 33 33 33 32 32 33 33 32 33
15 16 16 16 15 14 16 14 17 17 17 18 20 21 24 26 30 33 35 35 35 34 33 30 28 27 26 25 25 26 25 25 26 28 28 29 31 32 34 34 33 33 33 33 34 34 33 32 33
15 16 16 15 15 15 15 15 16 16 16 17 19 20 22 24 26 31 34 35 35 34 33 31 31 30 28 28 28 28 27 27 27 28 28 29 30 32 33 34 35 35 35 36 37 36 35 34 34
15 15 14 14 13 15 14 15 15 16 15 16 17 19 21 22 24 27 31 33 34 34 33 33 32 32 31 30 29 28 29 28 27 27 26 27 30 32 34 34 35 36 36 36 37 36 36 35 34
13 12 11 12 12 13 14 14 15 14 14 15 16 17 19 21 23 25 28 32 34 34 34 34 33 33 32 31 30 29 29 27 27 27 25 27 29 31 33 32 33 34 34 35 35 34 34 33 31
11 9 10 11 12 12 14 15 15 13 13 14 15 16 17 18 21 23 25 27 31 32 32 32 32 33 32 31 30 29 28 27 26 25 25 24 24 26 27 29 30 30 30 30 31 32 31 30 30
9 9 10 11 11 13 14 15 14 12 13 13 14 16 16 18 19 21 23 25 27 29 31 31 31 31 30 29 29 28 27 26 25 24 23 23 22 24 25 25 27 28 28 28 27 28 29 30 31
7 8 9 9 10 11 13 13 12 11 11 10 11 13 15 17 20 20 22 24 25 27 29 30 30 30 29 29 28 27 26 25 23 22 20 21 21 22 24 25 26 28 29 27 27 28 29 30 32
7 8 8 8 10 11 12 12 11 10 10 10 11 12 14 17 19 20 22 24 25 27 28 29 30 30 29 28 27 27 25 25 23 22 21 20 20 21 23 24 24 24 25 26 27 28 29 30 32
7 8 9 10 11 11 12 13 12 11 10 11 11 12 12 14 16 18 21 23 24 26 28 28 28 29 28 28 28 27 26 25 24 23 23 22 22 22 23 24 23 24 25 26 28 29 31 32 33
Wind_Direction
261 260 260 257 255 255 254 258 262 263 262 263 263 261 261 260 256 255 251 245 230 219 213 209 201 196 196 202 212 218 220 217 213 207 204 202 203 205 208 210 212 214 220 232 245 251 252 253 261
260 260 259 257 254 253 254 255 258 260 264 265 264 264 263 263 260 260 256 250 235 222 216 211 206 201 200 204 210 217 220 220 218 213 210 209 210 213 215 218 220 222 225 228 231 235 238 244 253
259 258 258 257 255 250 250 253 255 259 262 263 264 264 264 263 261 260 256 253 239 226 218 214 211 207 207 209 211 216 219 220 219 216 213 214 215 217 219 219 221 223 224 224 223 224 230 236 243
257 258 258 258 256 250 248 251 253 256 258 261 263 264 265 264 264 262 255 253 245 232 223 218 217 214 214 216 217 219 221 220 219 218 215 216 219 220 221 219 219 220 220 219 219 220 224 229 236
256 258 259 259 257 252 248 249 251 252 255 258 260 262 264 266 266 263 259 256 247 236 231 221 221 222 223 223 223 223 223 222 220 219 217 218 220 221 220 220 219 218 217 217 218 219 221 226 232
257 258 260 260 258 255 252 251 251 252 253 256 257 259 261 265 267 264 260 258 254 249 242 235 229 229 231 230 229 228 226 225 224 221 220 220 221 220 220 219 217 216 214 215 216 217 221 225 231
258 259 261 261 260 258 256 254 254 254 254 255 256 257 259 262 266 265 260 257 256 253 247 240 235 235 236 234 232 231 230 228 226 224 222 222 221 220 220 219 216 215 214 215 216 218 223 226 232
260 262 263 263 261 260 260 259 258 257 256 257 257 257 257 259 263 264 261 258 256 251 245 241 237 237 238 236 235 234 232 230 228 226 225 224 222 220 219 217 216 215 216 217 217 221 226 230 236
263 265 266 264 264 264 263 263 261 261 259 259 258 256 257 258 260 262 262 260 257 250 246 247 242 237 239 238 237 236 233 231 229 226 226 225 224 222 219 217 217 217 217 218 220 223 229 234 238
268 269 267 266 266 265 265 264 263 262 261 259 257 256 256 257 258 260 262 261 257 251 247 249 245 238 238 239 237 235 232 231 230 227 227 226 226 225 221 219 218 219 219 221 224 227 232 237 240
271 271 271 270 268 267 266 264 263 262 260 258 256 255 254 254 254 256 258 259 256 249 248 247 243 241 238 237 235 233 230 229 230 229 228 227 227 227 225 223 222 222 222 225 228 231 235 239 242
273 273 273 273 272 269 267 264 261 259 257 256 255 253 252 251 250 251 253 255 251 247 245 244 242 242 239 236 234 231 230 230 229 230 229 227 227 228 227 226 226 225 225 227 231 234 238 241 244
276 276 275 274 273 271 269 266 262 259 256 254 254 252 249 247 246 247 248 251 248 246 244 241 238 238 235 234 233 230 230 230 230 230 229 229 229 230 230 230 230 229 228 230 233 237 240 243 246
279 279 278 276 274 273 271 268 264 259 255 252 250 248 246 244 242 241 243 245 246 243 240 236 232 234 233 232 233 229 230 231 230 232 230 230 229 230 231 232 232 232 232 234 237 239 241 244 246
283 283 281 278 275 273 271 269 265 259 254 250 247 245 242 240 237 236 239 241 242 241 236 234 232 227 228 229 229 231 232 231 230 231 230 231 231 231 233 234 234 236 236 238 240 242 244 245 248
288 287 284 280 276 274 271 267 266 259 253 247 243 240 236 234 233 232 234 236 237 238 237 235 232 228 228 230 230 230 230 232 232 231 232 233 233 233 235 236 236 238 240 241 243 245 246 249 250
291 288 283 281 278 274 270 263 264 259 250 244 240 237 232 229 228 229 231 231 233 234 235 234 231 228 229 231 230 230 231 234 234 234 235 236 236 237 237 238 239 242 242 243 245 246 248 250 252
288 287 284 280 279 276 271 267 263 256 248 242 238 235 231 227 225 227 227 227 229 232 233 231 230 229 233 234 233 232 232 234 237 237 238 239 240 240 239 240 242 244 244 245 248 249 251 252 254
288 287 284 281 279 278 272 267 261 254 249 243 238 234 231 227 223 224 224 226 227 229 232 231 230 233 236 239 240 242 239 235 237 240 240 242 243 244 243 242 244 246 246 248 251 252 254 256 257
290 288 285 281 279 278 274 268 261 255 250 245 239 235 232 228 224 223 223 224 225 226 230 235 237 239 240 243 248 247 247 241 241 243 244 243 242 243 243 243 245 247 248 250 253 255 256 258 260
292 287 281 279 281 278 275 269 262 257 253 246 241 236 232 228 225 224 224 224 226 228 230 233 237 242 245 246 249 252 252 248 249 249 248 247 246 245 245 245 247 249 250 252 254 257 258 260 261
290 286 283 281 282 281 275 269 267 260 254 248 244 237 232 228 226 225 225 224 227 230 230 233 239 243 247 251 254 256 257 256 257 252 252 252 249 246 245 246 246 248 250 252 255 257 260 261 261
288 283 283 280 276 271 272 266 262 260 255 251 245 236 233 229 227 225 227 226 228 231 233 233 239 244 248 251 253 256 261 264 263 258 256 252 247 246 247 246 246 249 252 255 256 258 259 262 262
292 288 288 284 277 273 269 266 262 261 253 252 248 239 232 230 229 228 228 228 230 232 234 236 240 245 248 251 253 257 261 265 268 265 263 257 252 249 249 247 248 250 253 255 257 260 260 261 262
292 289 285 283 277 270 268 267 265 260 254 247 242 239 233 229 229 229 228 228 230 232 235 239 243 246 249 252 255 258 260 266 270 269 265 263 256 252 250 247 249 251 253 255 258 260 259 259 261
287 277 267 273 275 272 274 270 272 264 260 253 244 239 236 234 234 232 231 230 231 233 235 238 241 244 248 251 255 258 261 264 268 265 264 264 258 253 252 249 249 252 253 257 258 256 256 259 262
289 278 263 264 273 273 275 275 275 269 266 256 245 238 235 235 237 236 235 234 233 234 237 239 242 244 247 251 255 257 262 264 267 269 264 261 258 255 254 254 256 256 258 259 258 257 258 261 263
286 276 274 274 276 274 282 289 292 278 270 258 244 236 235 235 234 233 233 234 235 236 238 239 243 245 247 250 253 256 260 262 263 264 260 260 261 257 255 257 259 258 257 257 257 259 261 263 265
298 291 286 278 274 277 283 289 296 287 269 259 247 240 238 238 236 235 234 235 237 236 237 240 244 247 250 252 254 255 257 260 260 261 262 260 260 257 255 255 257 258 259 259 260 262 264 266 268
296 289 287 282 283 283 283 289 290 287 276 268 260 252 251 242 240 237 236 237 238 238 239 241 244 246 248 250 252 254 256 256 255 256 255 255 257 257 259 258 259 260 261 261 263 265 266 269 271
Height
5878 5879 5881 5883 5885 5886 5886 5885 5884 5884 5884 5885 5886 5888 5889 5890 5891 5893 5892 5890 5890 5891 5891 5892 5892 5892 5893 5894 5896 5897 5898 5899 5899 5899 5899 5900 5900 5901 5902 5902 5903 5903 5904 5904 5904 5905 5905 5905 5906
5874 5875 5877 5879 5881 5882 5883 5882 5881 5881 5881 5882 5883 5885 5886 5886 5887 5887 5887 5888 5888 5888 5889 5890 5890 5891 5891 5892 5893 5895 5896 5897 5897 5897 5898 5898 5899 5899 5900 5901 5901 5902 5902 5903 5903 5904 5904 5904 5904
5870 5871 5873 5875 5876 5878 5879 5877 5877 5877 5878 5879 5880 5881 5882 5883 5884 5884 5884 5885 5885 5886 5886 5887 5888 5889 5890 5890 5891 5892 5894 5894 5895 5895 5896 5896 5897 5898 5898 5899 5900 5900 5901 5901 5902 5902 5903 5903 5903
5866 5867 5869 5871 5872 5873 5873 5872 5872 5873 5874 5875 5876 5878 5879 5880 5881 5881 5881 5882 5882 5883 5884 5884 5886 5886 5887 5888 5889 5890 5891 5892 5892 5893 5893 5894 5895 5896 5897 5897 5898 5899 5899 5900 5900 5901 5901 5902 5902
5861 5863 5865 5866 5867 5867 5867 5867 5867 5868 5869 5871 5872 5874 5875 5876 5877 5878 5878 5879 5879 5880 5881 5882 5883 5884 5885 5886 5886 5887 5888 5890 5890 5891 5891 5892 5893 5894 5895 5896 5897 5897 5898 5898 5899 5899 5900 5900 5901
5858 5859 5860 5861 5861 5862 5862 5861 5862 5863 5865 5866 5868 5870 5871 5872 5873 5874 5875 5876 5877 5878 5878 5879 5880 5881 5882 5883 5884 5885 5886 5887 5888 5888 5889 5890 5891 5892 5893 5894 5895 5896 5896 5897 5897 5898 5899 5899 5899
5855 5855 5856 5856 5856 5857 5856 5856 5857 5858 5860 5861 5863 5865 5867 5868 5870 5871 5872 5873 5873 5874 5875 5876 5877 5878 5879 5880 5881 5882 5883 5884 5885 5886 5887 5888 5889 5890 5891 5892 5893 5894 5894 5895 5896 5896 5897 5898 5898
5849 5851 5851 5851 5851 5851 5851 5851 5852 5853 5855 5856 5858 5861 5862 5864 5866 5867 5868 5869 5869 5870 5871 5872 5873 5875 5876 5877 5878 5879 5880 5881 5882 5883 5884 5885 5886 5887 5888 5890 5891 5892 5892 5893 5894 5895 5895 5896 5896
5844 5847 5846 5846 5846 5846 5846 5846 5847 5848 5850 5851 5853 5855 5857 5859 5861 5863 5864 5865 5866 5867 5867 5868 5869 5871 5872 5873 5874 5875 5877 5878 5879 5880 5881 5882 5883 5885 5886 5887 5888 5890 5890 5891 5892 5893 5893 5894 5895
5840 5841 5840 5840 5840 5840 5840 5840 5841 5842 5844 5845 5847 5849 5851 5854 5857 5859 5860 5861 5862 5862 5863 5864 5865 5866 5868 5869 5870 5872 5873 5874 5876 5877 5878 5879 5881 5882 5883 5884 5885 5887 5888 5889 5890 5890 5891 5892 5892
5834 5834 5833 5833 5833 5834 5834 5834 5834 5836 5838 5839 5841 5843 5845 5849 5852 5854 5855 5856 5857 5857 5858 5859 5860 5862 5863 5865 5867 5868 5869 5871 5872 5873 5875 5876 5877 5879 5880 5881 5883 5884 5885 5886 5887 5888 5889 5889 5890
5828 5827 5827 5826 5826 5827 5827 5827 5827 5829 5831 5831 5834 5836 5839 5843 5846 5849 5850 5851 5852 5853 5853 5854 5856 5858 5859 5860 5862 5864 5865 5867 5868 5870 5871 5872 5874 5875 5877 5878 5880 5881 5883 5884 5885 5885 5886 5886 5887
5822 5821 5820 5819 5819 5819 5820 5820 5820 5821 5823 5824 5827 5830 5834 5837 5840 5843 5845 5846 5847 5848 5848 5849 5851 5852 5854 5856 5857 5859 5861 5862 5864 5865 5867 5869 5870 5872 5874 5875 5877 5878 5879 5880 5881 5882 5883 5883 5884
5816 5815 5813 5813 5812 5812 5813 5813 5814 5815 5816 5818 5820 5823 5827 5830 5833 5837 5839 5841 5842 5842 5843 5844 5845 5847 5849 5852 5852 5853 5856 5859 5860 5861 5863 5865 5866 5868 5870 5871 5873 5874 5876 5877 5878 5879 5879 5880 5880
5809 5808 5807 5806 5805 5806 5807 5807 5807 5808 5809 5812 5814 5817 5821 5824 5827 5830 5833 5835 5836 5837 5837 5838 5839 5841 5844 5846 5848 5849 5851 5854 5855 5857 5859 5861 5862 5864 5866 5867 5869 5870 5872 5873 5874 5875 5876 5876 5876
5803 5803 5802 5799 5799 5799 5802 5803 5801 5802 5803 5805 5808 5811 5814 5817 5821 5824 5827 5829 5830 5832 5833 5833 5834 5837 5839 5842 5843 5844 5846 5849 5851 5853 5854 5856 5858 5860 5861 5863 5865 5866 5867 5869 5870 5871 5871 5872 5872
5798 5798 5797 5795 5793 5793 5795 5796 5795 5796 5797 5799 5801 5804 5808 5811 5814 5818 5821 5823 5825 5827 5828 5829 5830 5833 5834 5836 5838 5839 5841 5844 5846 5847 5849 5850 5853 5855 5857 5859 5860 5861 5863 5864 5865 5866 5867 5867 5868
5794 5793 5791 5790 5788 5788 5788 5789 5789 5790 5791 5793 5795 5798 5801 5805 5808 5811 5815 5817 5820 5821 5823 5824 5825 5827 5829 5831 5833 5835 5837 5839 5841 5843 5845 5846 5848 5850 5852 5854 5855 5856 5858 5859 5860 5861 5862 5862 5863
5788 5787 5786 5785 5783 5783 5783 5783 5784 5784 5786 5787 5790 5792 5795 5798 5802 5805 5808 5811 5814 5816 5818 5819 5821 5823 5825 5827 5828 5830 5832 5834 5837 5839 5841 5842 5844 5845 5847 5848 5850 5851 5853 5854 5855 5856 5856 5857 5857
5783 5783 5782 5780 5778 5778 5778 5778 5779 5779 5781 5782 5784 5786 5789 5792 5796 5799 5802 5805 5807 5810 5813 5815 5816 5818 5821 5823 5824 5826 5827 5829 5832 5833 5834 5836 5838 5839 5841 5842 5844 5845 5846 5848 5849 5849 5850 5850 5851
5779 5778 5777 5776 5774 5774 5774 5774 5774 5775 5775 5777 5778 5780 5783 5786 5789 5792 5795 5798 5801 5804 5807 5810 5812 5814 5816 5818 5820 5821 5822 5823 5824 5826 5828 5829 5830 5832 5834 5835 5837 5838 5840 5841 5842 5843 5843 5844 5844
5775 5774 5772 5771 5771 5771 5771 5772 5770 5771 5771 5772 5773 5775 5777 5780 5782 5785 5789 5792 5795 5799 5801 5804 5808 5810 5812 5813 5815 5816 5815 5816 5817 5819 5820 5822 5823 5825 5826 5828 5829 5831 5832 5834 5835 5836 5836 5836 5837
5771 5769 5768 5767 5767 5768 5767 5768 5768 5766 5767 5768 5769 5770 5772 5774 5777 5779 5782 5786 5790 5793 5795 5799 5802 5804 5807 5808 5810 5810 5810 5810 5811 5813 5813 5814 5815 5817 5819 5820 5822 5823 5825 5826 5827 5828 5828 5829 5829
5766 5765 5764 5764 5764 5765 5765 5765 5764 5763 5763 5763 5764 5765 5767 5769 5771 5774 5777 5781 5784 5787 5790 5793 5796 5799 5801 5803 5804 5805 5805 5804 5805 5805 5806 5807 5808 5810 5811 5812 5814 5816 5817 5818 5819 5820 5820 5820 5821
5762 5763 5763 5763 5763 5762 5761 5761 5761 5759 5759 5759 5760 5761 5763 5765 5767 5770 5773 5776 5779 5782 5785 5788 5790 5793 5795 5797 5798 5799 5799 5799 5799 5799 5800 5801 5801 5802 5803 5805 5807 5808 5809 5810 5811 5812 5812 5813 5813
5759 5760 5762 5762 5761 5760 5757 5757 5756 5755 5755 5756 5757 5758 5759 5761 5763 5765 5768 5770 5773 5776 5779 5782 5785 5787 5789 5791 5792 5793 5794 5794 5793 5793 5794 5794 5794 5795 5796 5798 5799 5801 5801 5802 5803 5804 5804 5805 5805
5757 5756 5758 5757 5757 5756 5755 5753 5752 5751 5752 5752 5753 5754 5756 5757 5759 5761 5763 5766 5768 5771 5774 5777 5779 5781 5783 5785 5786 5787 5788 5788 5787 5788 5788 5788 5789 5789 5790 5792 5793 5793 5794 5795 5796 5796 5797 5797 5797
5755 5754 5754 5754 5754 5754 5753 5751 5749 5748 5748 5748 5749 5750 5752 5753 5755 5756 5759 5761 5763 5766 5768 5771 5773 5775 5777 5778 5780 5781 5782 5782 5782 5782 5782 5782 5783 5784 5785 5786 5786 5787 5787 5788 5789 5789 5789 5789 5789
5753 5752 5751 5752 5752 5751 5750 5751 5747 5745 5745 5745 5745 5746 5747 5748 5750 5752 5754 5756 5758 5760 5762 5765 5767 5768 5770 5772 5773 5774 5775 5776 5776 5777 5777 5777 5778 5778 5779 5780 5780 5780 5780 5781 5781 5781 5781 5781 5780
5751 5750 5750 5750 5749 5748 5747 5749 5743 5742 5742 5742 5742 5742 5743 5744 5745 5747 5749 5750 5752 5754 5756 5758 5760 5762 5764 5765 5767 5768 5769 5769 5770 5770 5771 5772 5772 5772 5773 5773 5774 5774 5774 5774 5774 5774 5773 5772 5771